Location: A�t �Alizem
(31.2076°N, 8.7872°W)
Time: 06:36:11
(UTC+00:00)

Envisat - Pass Details

Date: 04 October 2021
Orbit: 764 x 766 km, 98.2° (Epoch: 23 October)

Event Time Altitude Azimuth Distance (km) Brightness Sun altitude
Rises 05:06:04 0° 21° (NNE) 3,232 6.6 -18.9°
Reaches altitude 10° 05:08:31 10° 29° (NNE) 2,302 5.9 -18.4°
Maximum altitude 05:13:16 40° 99° (E) 1,114 4.4 -17.4°
Drops below altitude 10° 05:18:00 10° 168° (SSE) 2,290 5.5 -16.4°
Sets 05:20:25 0° 176° (S) 3,212 6.2 -15.9°
